Weather History for Mount Holly, NJ

Change the Weather History Date:

Wednesday, December 19, 2012

  Actual Average (KWRI) Record (KWRI)
Temperature  
Mean Temperature 44 °F -  
Max Temperature 50 °F 43 °F 57 °F (2002)
Min Temperature 37 °F 25 °F 19 °F (2011)
Degree Days  
Heating Degree Days 22    
Moisture  
Dew Point 28 °F    
Average Humidity 56    
Maximum Humidity 73    
Minimum Humidity 46    
Precipitation  
Precipitation 0.00 in - - ()
Sea Level Pressure  
Sea Level Pressure 29.92 in    
Wind  
Wind Speed 9 mph (WNW)    
Max Wind Speed 16 mph    
Max Gust Speed 25 mph    
Visibility 10 miles    
Events      
Averages and records for this station are not official NWS values.
T = Trace of Precipitation, MM = Missing Value Source: NWS Daily Summary

Daily Weather History Graph

Daily Weather History Graph

Search for Another Location

Airport:

Trip Planner

Search our weather history database for the weather conditions in past years. The results will help you decide how hot, cold, wet, or windy it might be!

Date:

Astronomy

Dec. 19, 2012 Rise Set
Actual Time 7:16 AM EST 4:36 PM EST
Civil Twilight 6:46 AM EST 5:07 PM EST
Nautical Twilight 6:12 AM EST 5:41 PM EST
Astronomical Twilight 5:39 AM EST 6:14 PM EST
Moon 11:24 AM EST (12/19) No Moon Set
Length of Visible Light 10h 21m
Length of Day
9h 20m
Waxing Crescent, 45% of the Moon is Illuminated
Dec 19
Waxing Crescent
Dec 20
First Quarter
Dec 28
Full
Jan 4
Last Quarter
Jan 11
New

Hourly Weather History & Observations

Time (EST) Temp. Windchill Dew Point Humidity Pressure Visibility Wind Dir Wind Speed Gust Speed Precip Events Conditions
12:54 AM 42.1 °F 36.6 °F 27.0 °F 55% 29.73 in 10.0 mi West 9.2 mph 20.7 mph N/A   Clear
1:54 AM 42.1 °F 37.1 °F 27.0 °F 55% 29.75 in 10.0 mi West 8.1 mph 19.6 mph N/A   Clear
2:54 AM 42.1 °F 35.2 °F 28.0 °F 58% 29.75 in 10.0 mi West 12.7 mph 18.4 mph N/A   Clear
3:54 AM 42.1 °F 36.6 °F 27.0 °F 55% 29.76 in 10.0 mi West 9.2 mph - N/A   Mostly Cloudy
4:54 AM 42.1 °F 38.4 °F 28.0 °F 58% 29.76 in 10.0 mi WNW 5.8 mph 16.1 mph N/A   Scattered Clouds
5:54 AM 41.0 °F 35.8 °F 28.0 °F 60% 29.79 in 10.0 mi West 8.1 mph - N/A   Partly Cloudy
6:54 AM 39.0 °F 33.4 °F 30.0 °F 70% 29.82 in 10.0 mi WSW 8.1 mph - N/A   Clear
7:54 AM 37.9 °F 32.7 °F 30.0 °F 73% 29.85 in 8.0 mi WSW 6.9 mph - N/A   Clear
8:54 AM 41.0 °F 33.5 °F 30.9 °F 67% 29.86 in 9.0 mi West 13.8 mph - N/A   Clear
9:54 AM 43.0 °F 36.8 °F 30.0 °F 60% 29.87 in 10.0 mi West 11.5 mph 19.6 mph N/A   Clear
10:54 AM 46.0 °F 40.6 °F 30.0 °F 54% 29.86 in 10.0 mi NW 11.5 mph 20.7 mph N/A   Clear
11:54 AM 46.9 °F - 28.9 °F 50% 29.86 in 10.0 mi WNW 15.0 mph 21.9 mph N/A   Clear
12:54 PM 48.0 °F - 30.0 °F 50% 29.86 in 10.0 mi WNW 16.1 mph 24.2 mph N/A   Clear
1:54 PM 48.9 °F - 28.9 °F 46% 29.87 in 10.0 mi WNW 15.0 mph 24.2 mph N/A   Clear
2:54 PM 50.0 °F - 30.0 °F 46% 29.90 in 10.0 mi Variable 6.9 mph 19.6 mph N/A   Clear
3:54 PM 48.0 °F - 28.9 °F 48% 29.94 in 10.0 mi West 16.1 mph 25.3 mph N/A   Overcast
4:54 PM 46.0 °F 41.4 °F 28.9 °F 51% 29.99 in 10.0 mi West 9.2 mph - N/A   Mostly Cloudy
5:54 PM 45.0 °F 41.8 °F 28.9 °F 53% 30.02 in 10.0 mi West 5.8 mph - N/A   Mostly Cloudy
6:54 PM 43.0 °F 39.5 °F 28.9 °F 58% 30.06 in 10.0 mi NNW 5.8 mph - N/A   Clear
7:54 PM 42.1 °F 38.4 °F 27.0 °F 55% 30.10 in 10.0 mi NNW 5.8 mph - N/A   Clear
8:54 PM 41.0 °F 36.4 °F 26.1 °F 55% 30.12 in 10.0 mi NW 6.9 mph - N/A   Clear
9:54 PM 39.9 °F - 26.1 °F 58% 30.14 in 10.0 mi Calm Calm - N/A   Clear
10:54 PM 39.0 °F - 26.1 °F 60% 30.15 in 10.0 mi Calm Calm - N/A   Clear
11:54 PM 39.0 °F 36.8 °F 26.1 °F 60% 30.16 in 10.0 mi NW 3.5 mph - N/A   Clear